Home > Weather > Ganderkesee > Past weeks

Flag for Germany Past Weather in Ganderkesee, Lower Saxony, Germany — Yesterday and Last 2 Weeks

Now
64 °F

Partly sunny.


Feels Like: 64 °F
Forecast: 65 / 83 °F
Wind: 6 mph from Northeast

Location: Bremen Airport

Current Time: Aug 27, 2016 at 8:47:55 AM

Latest Report: Aug 27, 2016 at 8:20 AM


Visibility: N/A

Pressure: 30.15 "Hg

Humidity: 88%

Dew Point: 61 °F

Location of GanderkeseeLocation

Past Weather in Ganderkesee — Graph

°F

Ganderkesee Temperature Yesterday

Maximum temperature yesterday: 90 °F (at 1:20 PM)
Minimum temperature yesterday: 63 °F (at 3:50 AM)
Average temperature yesterday: 75 °F

High & Low Weather Summary for the Past Weeks

 TemperatureHumidityPressure
High90 °F (Aug 25, 3:20 PM)100% (Aug 12, 7:20 AM)30.33 "Hg (Aug 12, 7:20 AM)
Low45 °F (Aug 16, 4:50 AM)29% (Aug 25, 4:20 PM)29.80 "Hg (Aug 18, 4:20 PM)
Average65 °F77%30.07 "Hg
* Reported Aug 12 7:20 AM — Aug 27 7:20 AM, Ganderkesee, Weather by CustomWeather, © 2016

Note: Actual official high and low records may vary slightly from our data, if they occured in-between our weather recording intervals... More about our weather records

Advertising

Ganderkesee Weather History for the Previous 24 Hours

Scroll right to see more
 ConditionsComfort  
Time TempWeatherWind HumidityBarometerVisibility
7:20 AM
Sat, Aug 27
63 °FPassing clouds.6 mph94%30.15 "HgN/A
6:50 AM63 °FPassing clouds.6 mph94%30.15 "HgN/A
6:20 AM63 °FPassing clouds.7 mph94%30.15 "HgN/A
5:50 AM63 °FPassing clouds.5 mph94%30.15 "HgN/A
5:20 AM63 °FPartly cloudy.6 mph94%30.15 "HgN/A
4:50 AM63 °FPassing clouds.5 mph94%30.15 "HgN/A
4:20 AM63 °FPartly cloudy.6 mph94%30.15 "HgN/A
3:50 AM64 °FPassing clouds.3 mph88%30.15 "HgN/A
3:20 AM63 °FClear.3 mph94%30.15 "Hg10 mi
2:50 AM64 °FPassing clouds.5 mph88%30.12 "HgN/A
2:20 AM64 °FPassing clouds.5 mph88%30.12 "HgN/A
1:50 AM64 °FPassing clouds.6 mph88%30.12 "HgN/A
1:20 AM64 °FPassing clouds.6 mph88%30.12 "HgN/A
12:50 AM64 °FClear.8 mph94%30.12 "Hg10 mi
12:20 AM64 °FClear.8 mph94%30.12 "Hg10 mi
11:50 PM
Fri, Aug 26
64 °FPassing clouds.6 mph94%30.12 "HgN/A
11:20 PM66 °FClear.7 mph88%30.09 "Hg10 mi
10:50 PM66 °FClear.9 mph88%30.09 "Hg10 mi
10:20 PM68 °FClear.9 mph78%30.09 "Hg10 mi
9:50 PM68 °FClear.10 mph73%30.09 "Hg10 mi
9:20 PM70 °FSunny.12 mph73%30.09 "Hg10 mi
8:50 PM72 °FSunny.12 mph65%30.07 "Hg10 mi
8:20 PM73 °FPassing clouds.10 mph61%30.07 "HgN/A
7:50 PM75 °FSunny.13 mph57%30.04 "Hg10 mi
7:20 PM77 °FSunny.13 mph57%30.04 "Hg10 mi
6:50 PM79 °FSunny.14 mph61%30.04 "Hg10 mi
6:20 PM81 °FPassing clouds.13 mph62%30.04 "HgN/A
5:50 PM81 °FPassing clouds.13 mph62%30.04 "HgN/A
5:20 PM82 °FSunny.12 mph58%30.04 "Hg10 mi
4:50 PM84 °FPassing clouds.13 mph51%30.01 "HgN/A
4:20 PM86 °FPassing clouds.12 mph52%30.01 "HgN/A
3:50 PM88 °FSunny.13 mph49%30.01 "Hg10 mi
3:20 PM88 °FPassing clouds.9 mph46%30.01 "HgN/A
2:50 PM88 °FSunny.7 mph49%30.01 "Hg10 mi
2:20 PM86 °FPassing clouds.13 mph55%30.01 "HgN/A
1:50 PM86 °FPassing clouds.13 mph52%29.98 "HgN/A
1:20 PM90 °FPassing clouds.14 mph43%29.98 "HgN/A
12:50 PM88 °FPassing clouds.9 mph43%29.98 "HgN/A
12:20 PM88 °FPassing clouds.6 mph43%29.98 "HgN/A
11:50 AM86 °FPassing clouds.6 mph46%29.98 "HgN/A
11:20 AM84 °FPassing clouds.7 mph48%29.98 "HgN/A
10:50 AM82 °FPassing clouds.6 mph48%29.95 "HgN/A
10:20 AM81 °FPassing clouds.6 mph51%29.95 "HgN/A
9:50 AM79 °FPassing clouds.6 mph51%29.95 "HgN/A
9:20 AM75 °FPassing clouds.5 mph57%29.95 "HgN/A
8:50 AM72 °FPassing clouds.5 mph65%29.95 "HgN/A
8:20 AM70 °FPassing clouds.6 mph64%29.95 "HgN/A
Weather by CustomWeather, © 2016

See weather overviewHow to use our weather pages